Вернуться в каталог

ARIANE 2 DEB

АктивенGTO
NORAD 28563·DEBRIS·🇫🇷 France

Запущен Oct 28, 1988 с Guiana Space Centre

Loading…

TLE

УстаревшееSource: Space-Track

Эпоха: Sep 13, 2026, 05:15 UTC

1 28563U 88098L   26256.21928118 -.00000546  00000-0 -16433-1 0  9995
2 28563   4.0778  65.3954 7218539  43.4657 291.7405  2.07220966177049

Отслеживайте ARIANE 2 DEB в реальном времени с AllMySat

Download on the App Store